TimeEDT,TemperatureF,Dew PointF,Humidity,Sea Level PressureIn,VisibilityMPH,Wind Direction,Wind SpeedMPH,Gust SpeedMPH,PrecipitationIn,Events,Conditions,WindDirDegrees,DateUTC
12:15 AM,75.2,75.2,100,30.13,7.0,Calm,Calm,-,N/A,,Scattered Clouds,0,2013-06-21 04:15:00
12:35 AM,75.2,73.4,94,30.14,7.0,Calm,Calm,-,N/A,,Scattered Clouds,0,2013-06-21 04:35:00
12:55 AM,75.2,75.2,100,30.13,7.0,Calm,Calm,-,N/A,,Mostly Cloudy,0,2013-06-21 04:55:00
1:15 AM,75.2,73.4,94,30.13,10.0,ENE,3.5,-,N/A,,Overcast,60,2013-06-21 05:15:00
1:35 AM,75.2,73.4,94,30.13,10.0,ENE,3.5,-,N/A,,Overcast,60,2013-06-21 05:35:00
1:55 AM,75.2,73.4,94,30.12,10.0,NE,4.6,-,N/A,,Mostly Cloudy,50,2013-06-21 05:55:00
2:15 AM,75.2,73.4,94,30.12,10.0,NE,4.6,-,N/A,,Mostly Cloudy,40,2013-06-21 06:15:00
2:35 AM,73.4,73.4,100,30.11,10.0,NE,3.5,-,N/A,,Scattered Clouds,50,2013-06-21 06:35:00
2:55 AM,73.4,73.4,100,30.11,10.0,ENE,3.5,-,N/A,,Clear,60,2013-06-21 06:55:00
3:15 AM,73.4,73.4,100,30.10,7.0,NNE,3.5,-,N/A,,Scattered Clouds,30,2013-06-21 07:15:00
3:35 AM,73.4,73.4,100,30.10,7.0,Calm,Calm,-,N/A,,Scattered Clouds,0,2013-06-21 07:35:00
3:55 AM,73.4,73.4,100,30.10,7.0,Calm,Calm,-,N/A,,Scattered Clouds,0,2013-06-21 07:55:00
4:15 AM,73.4,73.4,100,30.10,7.0,Calm,Calm,-,N/A,,Scattered Clouds,0,2013-06-21 08:15:00
4:35 AM,73.4,73.4,100,30.10,7.0,NNE,3.5,-,N/A,,Mostly Cloudy,30,2013-06-21 08:35:00
4:55 AM,73.4,73.4,100,30.09,7.0,NNE,4.6,-,N/A,,Mostly Cloudy,30,2013-06-21 08:55:00
5:15 AM,73.4,73.4,100,30.09,7.0,NE,5.8,-,N/A,,Overcast,40,2013-06-21 09:15:00
5:35 AM,73.4,73.4,100,30.10,10.0,NNE,4.6,-,N/A,,Overcast,30,2013-06-21 09:35:00
5:55 AM,73.4,73.4,100,30.10,10.0,NE,5.8,-,N/A,,Overcast,40,2013-06-21 09:55:00
6:15 AM,73.4,73.4,100,30.11,10.0,NE,5.8,-,N/A,,Overcast,40,2013-06-21 10:15:00
6:35 AM,73.4,73.4,100,30.11,7.0,NNE,6.9,-,N/A,,Mostly Cloudy,30,2013-06-21 10:35:00
6:55 AM,73.4,71.6,94,30.11,10.0,NE,5.8,-,N/A,,Scattered Clouds,50,2013-06-21 10:55:00
7:15 AM,73.4,71.6,94,30.12,10.0,NE,5.8,-,N/A,,Clear,50,2013-06-21 11:15:00
7:35 AM,73.4,71.6,94,30.12,10.0,NE,8.1,-,N/A,,Clear,40,2013-06-21 11:35:00
7:55 AM,75.2,71.6,89,30.13,10.0,NE,5.8,-,N/A,,Clear,50,2013-06-21 11:55:00
8:15 AM,75.2,73.4,94,30.14,10.0,ENE,8.1,-,N/A,,Clear,60,2013-06-21 12:15:00
8:35 AM,77.0,73.4,89,30.15,10.0,NE,8.1,-,N/A,,Clear,50,2013-06-21 12:35:00
8:55 AM,78.8,73.4,83,30.15,10.0,NE,4.6,-,N/A,,Scattered Clouds,50,2013-06-21 12:55:00
9:15 AM,78.8,73.4,83,30.16,10.0,ENE,8.1,-,N/A,,Scattered Clouds,60,2013-06-21 13:15:00
9:35 AM,80.6,73.4,79,30.16,10.0,ENE,9.2,-,N/A,,Scattered Clouds,70,2013-06-21 13:35:00
9:55 AM,80.6,73.4,79,30.16,10.0,NE,6.9,-,N/A,,Scattered Clouds,50,2013-06-21 13:55:00
10:15 AM,80.6,73.4,79,30.16,10.0,NE,8.1,-,N/A,,Scattered Clouds,40,2013-06-21 14:15:00
10:35 AM,82.4,73.4,74,30.16,10.0,NNE,9.2,-,N/A,,Mostly Cloudy,30,2013-06-21 14:35:00
10:55 AM,82.4,73.4,74,30.16,10.0,NE,6.9,-,N/A,,Mostly Cloudy,50,2013-06-21 14:55:00
11:15 AM,82.4,73.4,74,30.16,10.0,NE,9.2,-,N/A,,Mostly Cloudy,50,2013-06-21 15:15:00
11:35 AM,82.4,73.4,74,30.16,10.0,ENE,8.1,-,N/A,,Mostly Cloudy,70,2013-06-21 15:35:00
11:55 AM,82.4,73.4,74,30.16,10.0,NE,6.9,-,N/A,,Mostly Cloudy,40,2013-06-21 15:55:00
12:15 PM,84.2,73.4,70,30.15,10.0,NE,6.9,-,N/A,,Mostly Cloudy,40,2013-06-21 16:15:00
12:35 PM,86.0,73.4,66,30.15,10.0,NNE,5.8,-,N/A,,Mostly Cloudy,30,2013-06-21 16:35:00
12:55 PM,86.0,73.4,66,30.14,10.0,NE,6.9,-,N/A,,Scattered Clouds,50,2013-06-21 16:55:00
1:15 PM,87.8,75.2,66,30.14,10.0,NE,9.2,-,N/A,,Scattered Clouds,50,2013-06-21 17:15:00
1:35 PM,87.8,73.4,62,30.14,10.0,NNE,10.4,-,N/A,,Scattered Clouds,30,2013-06-21 17:35:00
1:55 PM,87.8,73.4,62,30.13,10.0,NNE,9.2,17.3,N/A,,Scattered Clouds,20,2013-06-21 17:55:00
2:15 PM,84.2,73.4,70,30.13,10.0,NNE,9.2,-,N/A,,Mostly Cloudy,30,2013-06-21 18:15:00
2:35 PM,86.0,75.2,70,30.12,10.0,NNE,8.1,-,N/A,,Mostly Cloudy,30,2013-06-21 18:35:00
2:55 PM,87.8,73.4,62,30.12,10.0,NE,8.1,-,N/A,,Scattered Clouds,40,2013-06-21 18:55:00
3:15 PM,89.6,75.2,62,30.12,10.0,NNE,9.2,-,N/A,,Mostly Cloudy,20,2013-06-21 19:15:00
3:35 PM,87.8,75.2,66,30.11,10.0,NE,8.1,-,N/A,,Mostly Cloudy,40,2013-06-21 19:35:00
3:55 PM,89.6,75.2,62,30.11,10.0,ENE,6.9,-,N/A,,Mostly Cloudy,60,2013-06-21 19:55:00
4:15 PM,80.6,73.4,79,30.13,10.0,ESE,11.5,19.6,N/A,,Overcast,110,2013-06-21 20:15:00
4:35 PM,77.0,73.4,89,30.13,3.0,East,13.8,18.4,N/A,,Overcast,100,2013-06-21 20:35:00
4:55 PM,75.2,73.4,94,30.14,0.8,ENE,4.6,-,N/A,,Overcast,60,2013-06-21 20:55:00
5:15 PM,75.2,73.4,94,30.14,1.8,East,5.8,-,N/A,,Overcast,90,2013-06-21 21:15:00
5:35 PM,75.2,73.4,94,30.14,1.2,NNE,3.5,-,N/A,,Overcast,20,2013-06-21 21:35:00
5:55 PM,75.2,73.4,94,30.14,4.0,NE,5.8,-,N/A,,Overcast,50,2013-06-21 21:55:00
6:15 PM,75.2,75.2,100,30.13,7.0,ENE,5.8,-,N/A,,Mostly Cloudy,70,2013-06-21 22:15:00
6:35 PM,75.2,73.4,94,30.11,10.0,ENE,4.6,-,N/A,,Clear,70,2013-06-21 22:35:00
6:55 PM,77.0,75.2,94,30.12,10.0,East,3.5,-,N/A,,Clear,100,2013-06-21 22:55:00
7:15 PM,78.8,75.2,89,30.11,10.0,ESE,3.5,-,N/A,,Clear,120,2013-06-21 23:15:00
7:35 PM,78.8,75.2,89,30.11,10.0,SE,3.5,-,N/A,,Clear,140,2013-06-21 23:35:00
7:55 PM,78.8,75.2,89,30.13,10.0,South,3.5,-,N/A,,Clear,180,2013-06-21 23:55:00
8:15 PM,78.8,75.2,89,30.13,10.0,SE,3.5,-,N/A,,Clear,140,2013-06-22 00:15:00
8:35 PM,78.8,75.2,89,30.13,10.0,South,3.5,-,N/A,,Clear,170,2013-06-22 00:35:00
8:55 PM,77.0,75.2,94,30.13,10.0,SSE,3.5,-,N/A,,Clear,160,2013-06-22 00:55:00
9:15 PM,77.0,75.2,94,30.13,10.0,Calm,Calm,-,N/A,,Clear,0,2013-06-22 01:15:00
9:35 PM,77.0,75.2,94,30.13,10.0,Calm,Calm,-,N/A,,Clear,0,2013-06-22 01:35:00
9:55 PM,77.0,75.2,94,30.14,10.0,Calm,Calm,-,N/A,,Clear,0,2013-06-22 01:55:00
10:15 PM,75.2,75.2,100,30.13,10.0,Calm,Calm,-,N/A,,Clear,0,2013-06-22 02:15:00
10:35 PM,75.2,75.2,100,30.14,10.0,Calm,Calm,-,N/A,,Clear,0,2013-06-22 02:35:00
10:55 PM,75.2,73.4,94,30.14,5.0,Calm,Calm,-,N/A,,Scattered Clouds,0,2013-06-22 02:55:00
11:15 PM,75.2,75.2,100,30.14,7.0,North,3.5,-,N/A,,Mostly Cloudy,360,2013-06-22 03:15:00
11:35 PM,75.2,75.2,100,30.14,7.0,Calm,Calm,-,N/A,,Overcast,0,2013-06-22 03:35:00
11:55 PM,75.2,73.4,94,30.13,7.0,Calm,Calm,-,N/A,,Scattered Clouds,0,2013-06-22 03:55:00